Showing default

CHUBUSAT 3, 41339

Orbit data source: Space-Track

CHUBUSAT 3, 41339 is a Japanese payload satellite in LEO that was launched on Wed, 17 Feb 2016 UTC via an H-IIA 202 launch vehicle from the Tanegashima Space Center (TNSTA). Payload-class satellites include a variety of spacecraft equipped with specific instruments for various scientific and technological missions. These include communications satellites like Starlink; space stations such as the ISS; scientific satellites like the Hubble; Earth observation satellites from companies like Planet Labs, Umbra, and HawkEye 360; GPS; miniature CubeSats for education and research; and military/defense satellites.

Loading next visibility...
Identifier
41339, 2016-012C
Orbit
LEO
Country
Flag of JPJP / JPN
Related business
Manufacturer
NAG/MHIME
Mission
Non-operational Amateur Imaging
Bus & Motor
Unknown
Mass
52 kg wet, 52 kg dry
Launch date (UTC)
2016-02-17 (10 years ago)
Launch vehicle
H-IIA 202
Launch site
Tanegashima Space Center (TNSTA)
Object type
Payload
Rocket body
Debris
Shape & HBR
Box, 0.3 m
Radar Cross Section
0.480 m², Medium (>0.1 m² and < 1m²)

Expand to show TLE details & history
Last TLE update: 22 hours ago

TLE from 22 hours ago
0 CHUBUSAT 3
1 41339U 16012C   26172.54282304  .00004139  00000-0  18994-3 0  9997
2 41339  31.0056 302.4925 0009173 108.5612 251.6026 15.18589519568862
Epoch: 2026-06-21T13:01Z
TLE epoch observation values (Epoch: 2026-06-21T13:01:39.910Z)
Latitude
Longitude
-162.66538°
Altitude
510.606 km
Speed
7.61 km/s
True Right ascension
20h 09m 58s
True Declination
0° 00' 00"
Sunlit
Object was in full shadow at epoch
Visualization orbit readout
Latitude
Unknown
Longitude
Unknown
Altitude
Unknown
Speed
Unknown
Apparent Right ascension
Unknown
Apparent Declination
Unknown
Sunlit
N/A
Visualization observer readout
Local Sidereal Time
21:35:48
Azimuth
Unknown
Elevation
Unknown
Doppler factor
Unknown
Orbital elements
Apogee altitude
520.279 km
Perigee altitude
507.635 km
Semi-major axis
6,892.094 km
Eccentricity
0.00092
Inclination
31.0056°
RAAN
302.4925°
Arg. of periapsis
108.5612°
True anomaly
251.50289°
Mean anomaly
251.6026°
Eccentric anomaly
251.55274°
Mean motion
3.79329 °/min
Orbital period
94.9 mins
BSTAR
0.00018994
Loading maneuver chart data...
Computing Atmospheric mass density...

Documentation

Showing up to 5 results
|